Change the Weather History Date:

Tuesday, January 7, 2014

  Actual Average (KLNR) Record (KLNR)
Temperature  
Mean Temperature -4 °F -  
Max Temperature 5 °F 26 °F 48 °F (2003)
Min Temperature -13 °F 12 °F -20 °F (1999)
Degree Days  
Heating Degree Days 69    
Moisture  
Dew Point -15 °F    
Average Humidity 61    
Maximum Humidity 71    
Minimum Humidity 47    
Precipitation  
Precipitation 0.00 in - - ()
Sea Level Pressure  
Sea Level Pressure 30.15 in    
Wind  
Wind Speed 9 mph (WSW)    
Max Wind Speed 14 mph    
Max Gust Speed -    
Averages and records for this station are not official NWS values.
T = Trace of Precipitation, MM = Missing Value Source: NWS Daily Summary

Daily Weather History Graph

Daily Weather History Graph

Search for Another Location

Airport or City:

Trip Planner

Search our weather history database for the weather conditions in past years. The results will help you decide how hot, cold, wet, or windy it might be!

Date:

Astronomy

Jan. 07, 2014 Rise Set
Actual Time 7:31 AM CST 4:43 PM CST
Civil Twilight 6:59 AM CST 5:15 PM CST
Nautical Twilight 6:24 AM CST 5:50 PM CST
Astronomical Twilight 5:50 AM CST 6:24 PM CST
Moon 11:09 AM CST (1/7) No Moon Set
Length of Visible Light 10h 15m
Length of Day
9h 11m
Waxing Crescent, 46% of the Moon is Illuminated
Jan 7
Waxing Crescent
Jan 7
First Quarter
Jan 15
Full
Jan 23
Last Quarter
Jan 30
New

Hourly Weather History & Observations

Time (CST) Temp. Windchill Dew Point Humidity Pressure Visibility Wind Dir Wind Speed Gust Speed Precip Events Conditions
12:15 AM -13.0 °F -34.3 °F -22.0 °F 64% 30.12 in - West 12.7 mph - N/A   Clear
12:35 AM -13.0 °F -34.3 °F -22.0 °F 64% 30.13 in - West 12.7 mph - N/A   Clear
12:55 AM -13.0 °F -34.3 °F -22.0 °F 64% 30.12 in - West 12.7 mph - N/A   Clear
1:15 AM -13.0 °F -34.3 °F -22.0 °F 64% 30.12 in - West 12.7 mph - N/A   Clear
1:35 AM -13.0 °F -35.2 °F -22.0 °F 64% 30.12 in - West 13.8 mph - N/A   Clear
1:55 AM -13.0 °F -33.4 °F -22.0 °F 64% 30.12 in - West 11.5 mph - N/A   Clear
2:15 AM -13.0 °F -32.4 °F -22.0 °F 64% 30.13 in - West 10.4 mph - N/A   Clear
2:35 AM -13.0 °F -30.0 °F -22.0 °F 64% 30.13 in - West 8.1 mph - N/A   Clear
2:55 AM -13.0 °F -31.3 °F -22.0 °F 64% 30.13 in - West 9.2 mph - N/A   Clear
3:15 AM -13.0 °F -31.3 °F -22.0 °F 64% 30.13 in - West 9.2 mph - N/A   Clear
3:35 AM -13.0 °F -32.4 °F -22.0 °F 64% 30.13 in - West 10.4 mph - N/A   Clear
3:55 AM -13.0 °F -31.3 °F -22.0 °F 64% 30.13 in - WSW 9.2 mph - N/A   Clear
4:15 AM -13.0 °F -32.4 °F -22.0 °F 64% 30.14 in - WSW 10.4 mph - N/A   Clear
4:35 AM -13.0 °F -31.3 °F -22.0 °F 64% 30.14 in - West 9.2 mph - N/A   Clear
4:55 AM -13.0 °F -32.4 °F -22.0 °F 64% 30.14 in - West 10.4 mph - N/A   Clear
5:15 AM -13.0 °F -27.0 °F -22.0 °F 64% 30.13 in - WSW 5.8 mph - N/A   Clear
5:35 AM -13.0 °F -28.6 °F -22.0 °F 64% 30.12 in - West 6.9 mph - N/A   Clear
5:55 AM -13.0 °F -28.6 °F -22.0 °F 64% 30.13 in - WSW 6.9 mph - N/A   Clear
6:15 AM -13.0 °F -31.3 °F -22.0 °F 64% 30.13 in - WSW 9.2 mph - N/A   Scattered Clouds
6:35 AM -13.0 °F -30.0 °F -22.0 °F 64% 30.13 in - WSW 8.1 mph - N/A   Scattered Clouds
6:55 AM -13.0 °F -30.0 °F -22.0 °F 64% 30.14 in - WSW 8.1 mph - N/A   Clear
7:15 AM -13.0 °F -28.6 °F -22.0 °F 64% 30.14 in - WSW 6.9 mph - N/A   Clear
7:35 AM -11.2 °F -29.0 °F -18.4 °F 70% 30.15 in - WSW 9.2 mph - N/A   Mostly Cloudy
7:55 AM -11.2 °F -24.8 °F -18.4 °F 70% 30.15 in - WSW 5.8 mph - N/A   Mostly Cloudy
8:15 AM -9.4 °F -25.6 °F -18.4 °F 65% 30.17 in - WSW 8.1 mph - N/A   Overcast
8:35 AM -9.4 °F -25.6 °F -18.4 °F 65% 30.17 in - WSW 8.1 mph - N/A   Overcast
8:55 AM -7.6 °F -25.7 °F -16.6 °F 65% 30.18 in - WSW 10.4 mph - N/A   Scattered Clouds
9:15 AM -7.6 °F -24.6 °F -16.6 °F 65% 30.18 in - West 9.2 mph - N/A   Clear
9:35 AM -5.8 °F -14.5 °F -16.6 °F 60% 30.17 in - West 3.5 mph - N/A   Clear
9:55 AM -5.8 °F -19.9 °F -16.6 °F 60% 30.16 in - West 6.9 mph - N/A   Clear
10:15 AM -5.8 °F -22.4 °F -14.8 °F 65% 30.17 in - West 9.2 mph - N/A   Mostly Cloudy
10:35 AM -5.8 °F -21.2 °F -14.8 °F 65% 30.18 in - West 8.1 mph - N/A   Overcast
10:55 AM -4.0 °F -19.0 °F -14.8 °F 60% 30.17 in - WSW 8.1 mph - N/A   Overcast
11:15 AM -4.0 °F -17.8 °F -14.8 °F 60% 30.17 in - WSW 6.9 mph - N/A   Mostly Cloudy
11:35 AM -2.2 °F -16.8 °F -14.8 °F 55% 30.16 in - WSW 8.1 mph - N/A   Clear
11:55 AM -0.4 °F -15.7 °F -13.0 °F 55% 30.16 in - WSW 9.2 mph - N/A   Clear
12:15 PM -0.4 °F -13.4 °F -13.0 °F 55% 30.15 in - West 6.9 mph - N/A   Clear
12:35 PM 1.4 °F -9.9 °F -13.0 °F 51% 30.14 in - WSW 5.8 mph - N/A   Mostly Cloudy
12:55 PM 1.4 °F -9.9 °F -13.0 °F 51% 30.13 in - WSW 5.8 mph - N/A   Scattered Clouds
1:15 PM 1.4 °F -8.3 °F -13.0 °F 51% 30.13 in - West 4.6 mph - N/A   Clear
1:35 PM 1.4 °F -9.9 °F -13.0 °F 51% 30.12 in - WSW 5.8 mph - N/A   Clear
1:55 PM 3.2 °F -7.8 °F -13.0 °F 47% 30.12 in - SW 5.8 mph - N/A   Clear
2:15 PM 3.2 °F -7.8 °F -11.2 °F 51% 30.11 in - SW 5.8 mph - N/A   Clear
2:35 PM 3.2 °F -6.2 °F -11.2 °F 51% 30.12 in - SW 4.6 mph - N/A   Clear
2:55 PM 3.2 °F -4.2 °F -13.0 °F 47% 30.12 in - WSW 3.5 mph - N/A   Clear
3:15 PM 5.0 °F -2.1 °F -11.2 °F 47% 30.12 in - SW 3.5 mph - N/A   Clear
3:35 PM 3.2 °F -4.2 °F -9.4 °F 56% 30.13 in - South 3.5 mph - N/A   Clear
3:55 PM 3.2 °F -6.2 °F -9.4 °F 56% 30.13 in - South 4.6 mph - N/A   Clear
4:15 PM 1.4 °F -8.3 °F -9.4 °F 61% 30.13 in - South 4.6 mph - N/A   Clear
4:35 PM 1.4 °F -9.9 °F -9.4 °F 61% 30.14 in - South 5.8 mph - N/A   Clear
4:55 PM 1.4 °F -8.3 °F -9.4 °F 61% 30.14 in - South 4.6 mph - N/A   Clear
5:15 PM 1.4 °F -8.3 °F -9.4 °F 61% 30.15 in - SSW 4.6 mph - N/A   Clear
5:35 PM 1.4 °F -8.3 °F -9.4 °F 61% 30.16 in - South 4.6 mph - N/A   Clear
5:55 PM 1.4 °F -9.9 °F -9.4 °F 61% 30.16 in - South 5.8 mph - N/A   Clear
6:15 PM 1.4 °F -9.9 °F -9.4 °F 61% 30.17 in - South 5.8 mph - N/A   Clear
6:35 PM 1.4 °F -9.9 °F -9.4 °F 61% 30.17 in - South 5.8 mph - N/A   Clear
6:55 PM 1.4 °F -11.3 °F -9.4 °F 61% 30.17 in - South 6.9 mph - N/A   Clear
7:15 PM 1.4 °F -6.2 °F -9.4 °F 61% 30.18 in - South 3.5 mph - N/A   Clear
7:35 PM 1.4 °F -6.2 °F -9.4 °F 61% 30.18 in - South 3.5 mph - N/A   Clear
7:55 PM 1.4 °F -8.3 °F -9.4 °F 61% 30.19 in - SSW 4.6 mph - N/A   Clear
8:15 PM -0.4 °F -10.4 °F -9.4 °F 66% 30.20 in - SSW 4.6 mph - N/A   Clear
8:35 PM 1.4 °F - -9.4 °F 61% 30.20 in - Calm Calm - N/A   Clear
8:55 PM 1.4 °F -6.2 °F -9.4 °F 61% 30.20 in - SW 3.5 mph - N/A   Clear
9:15 PM 1.4 °F -8.3 °F -9.4 °F 61% 30.20 in - SW 4.6 mph - N/A   Clear
9:35 PM 1.4 °F -9.9 °F -9.4 °F 61% 30.20 in - SW 5.8 mph - N/A   Clear
9:55 PM -2.2 °F -10.4 °F -11.2 °F 66% 30.20 in - West 3.5 mph - N/A   Clear
10:15 PM -4.0 °F -14.6 °F -11.2 °F 71% 30.21 in - West 4.6 mph - N/A   Clear
10:35 PM -2.2 °F -10.4 °F -9.4 °F 71% 30.21 in - West 3.5 mph - N/A   Clear
10:55 PM -0.4 °F -8.3 °F -9.4 °F 66% 30.21 in - West 3.5 mph - N/A   Clear
11:15 PM -2.2 °F -14.2 °F -9.4 °F 71% 30.21 in - WSW 5.8 mph - N/A   Clear
11:35 PM -2.2 °F -12.5 °F -9.4 °F 71% 30.21 in - WSW 4.6 mph - N/A   Clear
11:55 PM -0.4 °F - -9.4 °F 66% 30.20 in - Calm Calm - N/A   Clear